This demonstration page uses our WeatherBlox Daily Observations layout. Learn more.

Hourly Observations for December 10, 2017

Temp ( °F °C ) Dew Point ( °F °C ) Humidity (%) Winds ( mph kmh ) Pressure ( in mb ) Visibility ( mi km ) Precip ( " mm )
12:54 am 00:54 Clear 35 1.7 20 -6.7 54 54 Calm 30.08 1019 10 16.0934 0 0
1:54 am 01:54 Clear 36 2.2 20 -6.7 52 52 W 6 9 30.07 1018 10 16.0934 0 0
2:54 am 02:54 Clear 37 2.8 20 -6.7 50 50 W 6 9 30.07 1018 10 16.0934 0 0
3:54 am 03:54 Clear 40 4.4 20 -6.7 45 45 WNW 12 19 30.07 1018 10 16.0934 0 0
4:54 am 04:54 Clear 37 2.8 20 -6.7 50 50 W 8 13 30.09 1019 10 16.0934 0 0
5:54 am 05:54 Clear 37 2.8 19 -7.2 48 48 NW 3 6 30.11 1020 10 16.0934 0 0
6:54 am 06:54 Clear 37 2.8 19 -7.2 48 48 W 6 9 30.12 1020 10 16.0934 0 0
7:54 am 07:54 Sunny 37 2.8 19 -7.2 48 48 WNW 3 6 30.15 1021 10 16.0934 0 0
8:54 am 08:54 Sunny 34 1.1 22 -5.6 61 61 N 3 6 30.17 1022 10 16.0934 0 0
9:54 am 09:54 Sunny 45 7.2 21 -6.1 39 39 NNW 15 24 30.16 1021 10 16.0934 0 0
10:54 am 10:54 Sunny 51 10.6 21 -6.1 31 31 NNW 20 31 30.17 1022 10 16.0934 0 0
11:54 am 11:54 Sunny 53 11.7 22 -5.6 30 30 NW 14 22 30.16 1021 10 16.0934 0 0
12:54 pm 12:54 Sunny 56 13.3 20 -6.7 24 24 WNW 16 26 30.14 1021 10 16.0934 0 0
1:54 pm 13:54 Sunny 56 13.3 20 -6.7 24 24 NW 14 22 30.14 1021 10 16.0934 0 0
2:54 pm 14:54 Sunny 58 14.4 19 -7.2 22 22 NW 15 24 30.14 1021 10 16.0934 0 0
3:54 pm 15:54 Sunny 58 14.4 19 -7.2 22 22 NW 8 13 30.14 1021 10 16.0934 0 0
4:54 pm 16:54 Sunny 51 10.6 19 -7.2 28 28 Calm 30.14 1021 10 16.0934 0 0
5:54 pm 17:54 Clear 44 6.7 20 -6.7 38 38 Calm 30.14 1021 10 16.0934 0 0
6:54 pm 18:54 Clear 37 2.8 19 -7.2 48 48 Calm 30.16 1021 10 16.0934 0 0
7:54 pm 19:54 Clear 30 -1.1 17 -8.3 58 58 Calm 30.15 1021 10 16.0934 0 0
8:54 pm 20:54 Clear 33 0.6 18 -7.8 54 54 Calm 30.14 1021 10 16.0934 0 0
9:54 pm 21:54 Clear 32 0 18 -7.8 56 56 Calm 30.11 1020 10 16.0934 0 0
10:54 pm 22:54 Clear 27 -2.8 17 -8.3 66 66 SSE 3 6 30.09 1019 10 16.0934 0 0
11:54 pm 23:54 Clear 28 -2.2 19 -7.2 69 69 S 6 9 30.07 1018 10 16.0934 0 0

Powered by AerisWeather